Location: Bosmont
(49.7318°N, 3.8587°E)
Time: 10:56:06
(UTC+00:00)

FO-29 - Pass Details

Date: 07 December 2023
Orbit: 799 x 1322 km, 98.6° (Epoch: 29 February)

Event Time Altitude Azimuth Distance (km) Brightness Sun altitude
Rises 05:30:33 0° 8° (N) 4,121 12.7 -17.9°
Reaches altitude 10° 05:34:22 10° 348° (NNW) 3,232 12.0 -17.3°
Enters shadow 05:37:51 16° 320° (NW) 2,879 11.5 -16.7°
